[[{"header":{"parameterUnit":"m.s-1","parameterCategory":1,"la1":30.2991,"la2":30.254,"lo1":-89.0895,"lo2":-89.0444,"dy":0.0017,"dx":0.0017,"nx":28,"ny":28,"refTime":"2024-08-21T21:00:00:Z","depth":0,"parameterNumber":2,"parameterNumberName":"U-component_of_WINDS"},"data":[0,0,0,0,0,0,0,0,0,0,0,0,0,0,0,0,0,0,0,0,0,0,0,0,0,0,0,0,0,0,0,0,0,0,0,0,0,0,0,0,0,0,0,0,0,0,0,0,0,0,0,0,0,0,0,0,0,0,1.1156,1.1157,0,1.1234,1.1235,1.1236,1.1261,1.126,1.126,1.126,1.1339,1.1341,1.1343,0,0,0,0,0,0,0,0,0,0,0,0,0,1.1029,1.1031,1.1156,1.1157,1.1158,1.1234,1.1235,1.1236,1.1261,1.126,1.126,1.1259,1.1338,1.1341,1.1344,0,0,0,0,0,0,0,0,0,0,0,0,0,1.1093,1.1032,1.1156,1.118,1.1182,1.1234,1.1235,1.1237,1.1261,1.126,1.126,1.1259,1.1337,1.134,1.1344,1.1378,0,0,1.1355,1.1357,0,0,0,0,0,0,0,0,1.109,1.1098,1.1175,1.1178,1.1181,1.1237,1.1219,1.1284,1.1261,1.1231,1.126,1.1259,1.1305,1.1311,1.1327,1.1381,1.1385,1.1356,1.1358,1.1359,1.136,0,0,0,0,0,0,0,1.1085,1.1095,1.1187,1.1176,1.118,1.1186,1.1195,1.1232,1.127,1.1234,1.1236,1.1244,1.1307,1.1324,1.1329,1.1386,1.1355,1.1359,1.1361,1.1362,1.1473,1.1474,0,0,0,0,0,0,1.1077,1.1091,1.1185,1.1189,1.1133,1.1189,1.1199,1.122,1.127,1.1277,1.1245,1.1245,1.1318,1.1325,1.1332,1.1376,1.1359,1.1363,1.1365,1.1473,1.1473,1.1474,0,0,0,0,0,0,1.1074,1.1085,1.1181,1.1141,1.1154,1.1192,1.1215,1.1222,1.1238,1.1278,1.1285,1.1255,1.1318,1.1327,1.1367,1.1379,1.1364,1.1368,1.1472,1.1473,1.1474,1.1462,0,0,0,0,0,0,1.107,1.1084,1.1096,1.1141,1.1156,1.1214,1.1216,1.1223,1.1245,1.1246,1.129,1.1296,1.1318,1.1361,1.137,1.1384,1.1371,1.1471,1.1472,1.1473,1.1462,1.1463,1.1464,0,0,0,0,0,1.1066,1.109,1.1097,1.1108,1.1172,1.1215,1.1223,1.1248,1.1246,1.1259,1.1285,1.1295,1.1376,1.1365,1.1375,1.139,1.147,1.1472,1.1473,1.1461,1.1463,1.1464,0,0,0,0,0,0,1.1045,1.1096,1.1104,1.1144,1.1175,1.1219,1.1236,1.1248,1.128,1.128,1.1309,1.1319,1.1356,1.1377,1.1364,1.1426,1.1424,1.1427,1.1411,1.1412,1.1413,1.1407,1.1374,0,0,0,0,0,1.1045,1.1075,1.1118,1.1148,1.1164,1.1197,1.1217,1.1233,1.1266,1.128,1.1308,1.134,1.1373,1.1394,1.1426,1.1465,1.1476,1.1481,1.1482,1.1483,1.1485,1.1509,1.1512,1.148,1.148,1.148,0,0,1.1045,1.1077,1.1094,1.1145,1.1171,1.1202,1.1208,1.124,1.1264,1.1284,1.1324,1.1346,1.1384,1.1424,1.1442,1.1442,1.1497,1.1485,1.1485,1.1487,1.1511,1.1514,1.1516,1.1481,1.1481,1.148,0,0,1.1061,1.1088,1.1117,1.1143,1.1183,1.1206,1.1213,1.1256,1.1272,1.1312,1.1329,1.1357,1.1413,1.1439,1.146,1.1489,1.1499,1.1499,1.1504,1.1526,1.1529,1.1531,1.1542,1.1545,1.1501,1.1501,1.1501,0,1.1056,1.1103,1.113,1.1162,1.1184,1.1206,1.1236,1.126,1.1308,1.1323,1.1323,1.1394,1.1421,1.1468,1.1475,1.1491,1.15,1.1493,1.1526,1.1529,1.1532,1.1542,1.1546,1.1501,1.1501,1.1501,1.1501,0,1.1096,1.1128,1.1147,1.1194,1.1219,1.1249,1.1281,1.1303,1.1318,1.1341,1.1382,1.1415,1.1456,1.1468,1.1482,1.1518,1.1516,1.1521,1.1519,1.1534,1.1544,1.1549,1.1501,1.1501,1.1501,1.1501,0,0,1.1099,1.1162,1.1168,1.1191,1.1237,1.1263,1.1295,1.1335,1.1354,1.1387,1.1415,1.1463,1.1468,1.1491,1.1509,1.1529,1.1551,1.1531,1.1533,1.1534,1.1593,1.1589,1.1593,1.1559,1.156,1.156,1.159,0,1.1121,1.118,1.1206,1.1253,1.1284,1.1306,1.1334,1.1366,1.1389,1.1419,1.1444,1.1478,1.1481,1.1496,1.1517,1.1544,1.1563,1.1542,1.1585,1.1586,1.1575,1.1598,1.1594,1.162,1.1594,1.1595,1.1595,0,1.1154,1.1189,1.1239,1.1283,1.1297,1.1322,1.1362,1.139,1.1427,1.1443,1.147,1.1488,1.1523,1.152,1.1569,1.1554,1.1574,1.159,1.1592,1.1596,1.1591,1.1604,1.1629,1.1633,1.1602,1.1601,1.1601,0,1.1152,1.1211,1.1249,1.1267,1.132,1.1337,1.136,1.1397,1.142,1.1455,1.147,1.1508,1.1529,1.1559,1.1586,1.1581,1.1634,1.1632,1.1647,1.1647,1.1657,1.1656,1.1685,1.167,1.167,1.167,1.1669,0,1.1174,1.1204,1.1249,1.1272,1.1307,1.1337,1.1371,1.1395,1.1428,1.1457,1.1478,1.1505,1.154,1.1571,1.1593,1.1631,1.1641,1.1654,1.166,1.1652,1.165,1.1665,1.1664,1.1671,1.167,1.167,1.167,0,1.1177,1.1208,1.1251,1.1298,1.1311,1.1335,1.1375,1.1399,1.1424,1.146,1.147,1.1509,1.1547,1.1578,1.1628,1.1643,1.1683,1.1689,1.167,1.1673,1.1687,1.1685,1.1727,1.1734,1.1713,1.1713,1.1713,0,1.1188,1.1212,1.1263,1.1284,1.1306,1.134,1.1364,1.1395,1.1419,1.1465,1.1483,1.1523,1.1557,1.1617,1.165,1.1688,1.1695,1.1708,1.1701,1.1693,1.1696,1.1694,1.1697,1.1708,1.1708,1.1708,1.1708,0,1.1206,1.1221,1.1254,1.1294,1.1323,1.1355,1.1389,1.1405,1.1442,1.1468,1.1508,1.1534,1.1586,1.1626,1.1668,1.1692,1.1706,1.171,1.1716,1.1708,1.1696,1.1703,1.1672,1.1708,1.1708,1.1708,1.1708,1.1708,1.1214,1.1236,1.1276,1.1313,1.1342,1.1373,1.1398,1.1427,1.146,1.1505,1.1522,1.1563,1.1601,1.166,1.1684,1.1717,1.1718,1.1726,1.1728,1.173,1.1729,1.1691,1.1725,1.1725,1.1725,1.1725,1.1725,0,1.1232,1.1259,1.1293,1.134,1.137,1.1382,1.142,1.1444,1.148,1.1515,1.1548,1.1594,1.1633,1.167,1.1711,1.173,1.1738,1.174,1.1739,1.1744,1.1725,1.1716,1.1733,1.1733,1.1733,1.1733,1.1733,1.1733,1.1245,1.1285,1.1305,1.1359,1.1386,1.1426,1.1447,1.1476,1.1504,1.1555,1.1588,1.1612,1.1648,1.1692,1.1729,1.1739,1.1753,1.1753,1.1765,1.1746,1.1745,1.1744,1.1736,1.1756,1.1756,1.1781,1.1781,1.1781]},{"header":{"parameterUnit":"m.s-1","parameterCategory":1,"la1":30.2991,"la2":30.254,"lo1":-89.0895,"lo2":-89.0444,"dy":0.0017,"dx":0.0017,"nx":28,"ny":28,"refTime":"2024-08-21T21:00:00:Z","depth":0,"parameterNumber":3,"parameterNumberName":"V-component_of_WINDS"},"data":[0,0,0,0,0,0,0,0,0,0,0,0,0,0,0,0,0,0,0,0,0,0,0,0,0,0,0,0,0,0,0,0,0,0,0,0,0,0,0,0,0,0,0,0,0,0,0,0,0,0,0,0,0,0,0,0,0,0,-0.3819,-0.3821,0,-0.399,-0.3992,-0.3994,-0.409,-0.409,-0.409,-0.4091,-0.4269,-0.4273,-0.4278,0,0,0,0,0,0,0,0,0,0,0,0,0,-0.3577,-0.3581,-0.3819,-0.3821,-0.3823,-0.399,-0.3992,-0.3995,-0.409,-0.409,-0.4091,-0.4091,-0.4267,-0.4273,-0.4278,0,0,0,0,0,0,0,0,0,0,0,0,0,-0.3709,-0.3582,-0.3819,-0.3891,-0.3899,-0.399,-0.3993,-0.3995,-0.409,-0.409,-0.4091,-0.4091,-0.4266,-0.4272,-0.4279,-0.4312,0,0,-0.4299,-0.4302,0,0,0,0,0,0,0,0,-0.3701,-0.3717,-0.3878,-0.3886,-0.3895,-0.4019,-0.3973,-0.4102,-0.409,-0.4017,-0.4091,-0.4091,-0.4186,-0.4199,-0.423,-0.432,-0.4328,-0.43,-0.4304,-0.4307,-0.4309,0,0,0,0,0,0,0,-0.3692,-0.3711,-0.3887,-0.388,-0.3891,-0.3915,-0.3935,-0.3997,-0.4097,-0.4024,-0.4031,-0.405,-0.419,-0.4223,-0.4235,-0.433,-0.43,-0.4306,-0.431,-0.4312,-0.4456,-0.4456,0,0,0,0,0,0,-0.3671,-0.3702,-0.3882,-0.3892,-0.3797,-0.3919,-0.3941,-0.3979,-0.4097,-0.4115,-0.4049,-0.4054,-0.4212,-0.4227,-0.4242,-0.4288,-0.4307,-0.4313,-0.4317,-0.4456,-0.4456,-0.4456,0,0,0,0,0,0,-0.3665,-0.3686,-0.3875,-0.3799,-0.3825,-0.3923,-0.3965,-0.3982,-0.4015,-0.4116,-0.4135,-0.4065,-0.4213,-0.4232,-0.4293,-0.4296,-0.4316,-0.4322,-0.4457,-0.4456,-0.4456,-0.4381,0,0,0,0,0,0,-0.3658,-0.3683,-0.3696,-0.3799,-0.3829,-0.3922,-0.3965,-0.3985,-0.4026,-0.4034,-0.4135,-0.4153,-0.4215,-0.4283,-0.43,-0.4305,-0.4327,-0.4457,-0.4456,-0.4456,-0.4384,-0.4378,-0.4373,0,0,0,0,0,-0.3649,-0.3669,-0.3696,-0.3717,-0.3847,-0.3922,-0.394,-0.401,-0.4026,-0.404,-0.4105,-0.4149,-0.4292,-0.4288,-0.4309,-0.4316,-0.4457,-0.4457,-0.4456,-0.4386,-0.4379,-0.4373,0,0,0,0,0,0,-0.3565,-0.3684,-0.3715,-0.3769,-0.3835,-0.3938,-0.3959,-0.4,-0.4064,-0.4068,-0.4153,-0.4175,-0.4228,-0.4279,-0.4272,-0.4354,-0.438,-0.4383,-0.4319,-0.4314,-0.4309,-0.4296,-0.4333,0,0,0,0,0,-0.3553,-0.3603,-0.3705,-0.3742,-0.3773,-0.386,-0.3895,-0.3944,-0.4016,-0.4044,-0.4113,-0.4182,-0.4243,-0.4281,-0.4343,-0.4391,-0.4415,-0.4406,-0.4401,-0.4396,-0.4398,-0.4428,-0.4426,-0.4454,-0.4454,-0.4454,0,0,-0.3528,-0.3599,-0.3626,-0.3727,-0.3784,-0.3835,-0.3883,-0.3935,-0.3974,-0.4053,-0.4114,-0.4167,-0.425,-0.4305,-0.4332,-0.4348,-0.4396,-0.4396,-0.4391,-0.4396,-0.4427,-0.4425,-0.4422,-0.4454,-0.4454,-0.4454,0,0,-0.3509,-0.3568,-0.3605,-0.3661,-0.3745,-0.3803,-0.3811,-0.3909,-0.3947,-0.401,-0.407,-0.4118,-0.422,-0.4277,-0.4319,-0.432,-0.4363,-0.4338,-0.4311,-0.4339,-0.4337,-0.4335,-0.4336,-0.4335,-0.4339,-0.4339,-0.4339,0,-0.3468,-0.3547,-0.362,-0.3668,-0.3711,-0.3783,-0.3823,-0.3873,-0.3974,-0.4002,-0.4018,-0.4147,-0.4208,-0.4277,-0.4277,-0.4309,-0.4322,-0.4327,-0.4331,-0.433,-0.433,-0.4331,-0.4331,-0.4336,-0.4336,-0.4336,-0.4337,0,-0.3492,-0.3546,-0.3566,-0.366,-0.3705,-0.3749,-0.3829,-0.3866,-0.391,-0.3966,-0.4029,-0.4104,-0.4182,-0.4202,-0.4246,-0.4278,-0.4285,-0.4314,-0.4342,-0.4322,-0.4325,-0.4326,-0.433,-0.4332,-0.4333,-0.4334,0,0,-0.3426,-0.3559,-0.3565,-0.3609,-0.3707,-0.375,-0.3797,-0.3872,-0.3903,-0.3969,-0.4011,-0.4096,-0.4124,-0.4171,-0.4222,-0.4247,-0.4243,-0.4274,-0.4277,-0.4266,-0.4283,-0.426,-0.426,-0.4272,-0.4273,-0.4273,-0.4276,0,-0.3422,-0.3508,-0.3575,-0.3637,-0.3687,-0.3756,-0.3797,-0.3862,-0.3915,-0.3967,-0.4026,-0.4085,-0.4117,-0.4146,-0.4173,-0.4238,-0.4248,-0.4239,-0.4313,-0.4315,-0.429,-0.4261,-0.4238,-0.4237,-0.4278,-0.4278,-0.4278,0,-0.3428,-0.3491,-0.3557,-0.365,-0.3674,-0.3709,-0.3783,-0.3831,-0.3906,-0.3944,-0.3996,-0.4048,-0.4102,-0.4123,-0.4199,-0.4191,-0.4225,-0.4261,-0.4263,-0.4273,-0.4295,-0.4271,-0.4239,-0.4238,-0.4281,-0.4281,-0.4281,0,-0.3374,-0.3475,-0.3528,-0.3563,-0.3672,-0.3695,-0.3742,-0.3818,-0.3858,-0.3923,-0.3951,-0.4021,-0.406,-0.4114,-0.4184,-0.4193,-0.4252,-0.428,-0.4285,-0.4283,-0.4295,-0.4293,-0.4268,-0.4316,-0.4316,-0.4316,-0.4316,0,-0.3362,-0.34,-0.3505,-0.3537,-0.3582,-0.3658,-0.3701,-0.3754,-0.382,-0.3865,-0.3929,-0.3969,-0.406,-0.4112,-0.4167,-0.4221,-0.4238,-0.427,-0.4285,-0.4265,-0.4261,-0.4289,-0.4291,-0.4316,-0.4316,-0.4316,-0.4316,0,-0.3309,-0.338,-0.3442,-0.354,-0.3566,-0.3594,-0.3679,-0.3713,-0.3769,-0.3825,-0.3842,-0.3931,-0.3996,-0.4071,-0.416,-0.4198,-0.4247,-0.4268,-0.4221,-0.4229,-0.4231,-0.4229,-0.4223,-0.4226,-0.4271,-0.427,-0.427,0,-0.3297,-0.3327,-0.3428,-0.3461,-0.3506,-0.356,-0.3601,-0.3678,-0.3719,-0.3806,-0.383,-0.3899,-0.3958,-0.4058,-0.4131,-0.42,-0.4223,-0.4216,-0.4234,-0.4213,-0.4224,-0.4221,-0.4225,-0.4211,-0.421,-0.421,-0.4209,0,-0.3268,-0.3301,-0.3358,-0.3427,-0.3474,-0.3532,-0.3593,-0.3618,-0.3707,-0.3749,-0.3815,-0.3861,-0.3951,-0.4019,-0.4097,-0.4146,-0.4193,-0.4203,-0.4208,-0.4188,-0.4159,-0.4175,-0.4208,-0.4203,-0.4203,-0.4204,-0.4204,-0.4205,-0.3235,-0.3265,-0.3341,-0.3402,-0.3455,-0.351,-0.3547,-0.3608,-0.3664,-0.3742,-0.3785,-0.3849,-0.3924,-0.4033,-0.4081,-0.4134,-0.415,-0.4157,-0.4159,-0.4159,-0.4154,-0.415,-0.4148,-0.4149,-0.4149,-0.4149,-0.4149,0,-0.321,-0.3261,-0.3316,-0.3399,-0.3447,-0.3485,-0.3554,-0.3592,-0.3648,-0.3713,-0.377,-0.3845,-0.3911,-0.3989,-0.406,-0.4088,-0.4111,-0.4104,-0.4103,-0.4114,-0.4135,-0.4124,-0.4084,-0.4084,-0.4084,-0.4084,-0.4084,-0.4084,-0.3202,-0.3255,-0.3297,-0.3378,-0.343,-0.3493,-0.3529,-0.3581,-0.3633,-0.3714,-0.3769,-0.3819,-0.389,-0.3966,-0.4029,-0.405,-0.4073,-0.406,-0.4088,-0.4106,-0.4112,-0.4117,-0.4107,-0.4064,-0.4064,-0.4062,-0.4062,-0.4062]}]]